16.12.2018Höhe
ü. NN
ZeitTemperatur (°C)Nieder-
schlag
Luft-
feuchte
Luft-
druck
Wind
StationaktuellMinimumMaximumaktuellMaximum
Aldingen654 m02:11-4,2-4,8 (20:27)-4,2 (14:11)0,0 l/m²84%1018,611,1 km/h (2 Bft) S-SO24,1 km/h (4 Bft) SO (21:58)
Allmendingen541 m02:10-4,5-7,2 (23:55)-4,5 (14:05)0,0 l/m²91%1018,00,0 km/h (0 Bft) S-SO17,7 km/h (3 Bft) SO (20:00)
Altshausen574 m02:15-5,8-6,7 (00:00)-5,7 (01:41)0,0 l/m²89%1014,51,6 km/h (1 Bft) S4,8 km/h (1 Bft) W-SW (00:51)
Amstetten-Reutti663 m02:10-4,9-5,4 (00:10)-4,8 (15:40)0,0 l/m²91%1017,827,4 km/h (4 Bft) O33,8 km/h (5 Bft) O (20:40)
Amtzell-Grenis677 m02:10-5,9-7,4 (00:05)-5,9 (02:10)0,0 l/m²81%1020,011,3 km/h (2 Bft) W-SW11,3 km/h (2 Bft) O (00:30)
Aulendorf570 m02:15-5,3-5,4 (00:00)-5,3 (00:15)0,0 l/m²86%1017,80,0 km/h (0 Bft) NO8,0 km/h (2 Bft) NO (00:02)
Bad Krozingen233 m02:15-1,7-1,7 (20:40)-1,2 (13:25)0,0 l/m²89%1016,84,9 km/h (1 Bft) N-NO9,9 km/h (2 Bft) N (14:30)
Bad Saulgau595 m02:10-5,8-6,8 (22:55)-5,8 (14:10)0,0 l/m²90%1017,23,2 km/h (1 Bft) NW19,3 km/h (3 Bft) W (10:40)
Bad Saulgau-Lampertsweiler627 m02:10-6,1-6,3 (01:15)-5,8 (00:00)0,0 l/m²87%1020,40,0 km/h (0 Bft) S-SW4,8 km/h (1 Bft) W-NW (01:50)
Bad Schussenried572 m02:10-5,6-6,7 (00:00)-5,6 (02:00)0,0 l/m²92%1016,30,0 km/h (0 Bft) O0,0 km/h (0 Bft) O (00:00)
Biberach (Riss), Boehringer533 m02:10-5,0-6,1 (00:00)-4,8 (01:40)0,0 l/m²88%1016,51,8 km/h (1 Bft) N-NW9,0 km/h (2 Bft) N (00:40)
Biberach (Riss), Realschule553 m02:10-5,1-5,3 (00:00)-5,1 (01:00)0,0 l/m²85%1019,26,4 km/h (2 Bft) SO16,1 km/h (3 Bft) O (00:25)
Bodnegg-Rotheidlen677 m02:10-5,6-6,9 (00:00)-5,6 (02:10)0,0 l/m²88%1018,79,7 km/h (2 Bft) SW11,3 km/h (2 Bft) SW (02:00)
Burgrieden523 m02:10-5,2-6,1 (00:05)-5,2 (01:50)0,0 l/m²85%1018,20,0 km/h (0 Bft) O-SO12,9 km/h (3 Bft) O (01:10)
Burgrieden-Hochstetten510 m02:15-4,7-6,4 (23:21)-4,7 (11:45)0,0 l/m²88%1018,36,4 km/h (2 Bft) O-SO20,9 km/h (4 Bft) O-SO (15:25)
Ebersbach579 m02:10-6,0-6,9 (00:00)-6,0 (02:10)0,0 l/m²93%1019,00,0 km/h (0 Bft) O-NO0,0 km/h (0 Bft) NO (00:00)
Ebersbach-Boos605 m02:10-6,2-6,8 (00:00)-6,2 (02:05)0,0 l/m²93%1018,80,0 km/h (0 Bft) W-SW0,0 km/h (0 Bft) O-SO (00:00)
Ebersbach-Menzenweiler661 m02:10-6,1-6,2 (00:05)-5,8 (01:10)0,0 l/m²93%1018,90,0 km/h (0 Bft) O11,3 km/h (2 Bft) O-NO (00:05)
Erlenmoos645 m02:10-5,8-6,2 (00:05)-5,7 (02:10)0,0 l/m²93%1018,54,8 km/h (1 Bft) SO16,1 km/h (3 Bft) O-SO (00:00)
Ertingen569 m02:15-5,3-6,1 (00:00)-5,3 (01:50)0,0 l/m²91%1017,90,0 km/h (0 Bft) NO4,8 km/h (1 Bft) NO (00:20)
Friedrichshafen405 m02:10-4,2-4,7 (22:40)-4,2 (14:45)0,0 l/m²85%1018,78,0 km/h (2 Bft) NO14,5 km/h (3 Bft) O-NO (08:45)
Günzburg443 m02:10-3,8-4,2 (00:50)-3,7 (00:00)0,0 l/m²83%1015,80,0 km/h (0 Bft) O8,0 km/h (2 Bft) O-SO (01:35)
Höchsten802 m02:10-5,9-6,4 (00:00)-5,8 (02:00)0,0 l/m²88%1016,40,0 km/h (0 Bft) S-SW0,0 km/h (0 Bft) N-NW (00:00)
Horgenzell618 m02:10-3,3-3,3 (00:00)-3,3 (00:00)0,0 l/m²86%1011,412,9 km/h (3 Bft) O-NO12,9 km/h (3 Bft) O-NO (00:00)
Hoßkirch632 m02:10-6,3-8,0 (00:00)-6,3 (01:55)0,0 l/m²93%1017,50,0 km/h (0 Bft) W9,7 km/h (2 Bft) W (00:45)
Isny, Am Dreifingerbach695 m02:10-7,9-9,1 (00:00)-7,7 (01:15)0,0 l/m²90%1018,53,2 km/h (1 Bft) O-NO6,4 km/h (2 Bft) O-NO (00:45)
Isny, Weidachweg706 m02:10-6,9-9,0 (00:15)-6,3 (01:55)0,0 l/m²84%1020,10,0 km/h (0 Bft) W-SW6,4 km/h (2 Bft) SO (00:05)
Kappel-Grafenhausen163 m02:05-0,9-1,6 (20:10)-0,9 (13:55)0,0 l/m²87%1015,10,0 km/h (0 Bft) N12,9 km/h (3 Bft) W (15:00)
Kirchberg an der Iller584 m02:15-5,4-5,8 (23:50)-5,4 (15:10)0,0 l/m²86%1008,10,0 km/h (0 Bft) N-NW13,8 km/h (3 Bft) W-NW (17:10)
Kißlegg-Staibshof709 m02:10-6,6-6,9 (00:15)-6,6 (02:10)0,0 l/m²90%1018,70,0 km/h (0 Bft) O-NO0,0 km/h (0 Bft) O-NO (00:00)
Kressbronn398 m02:14-4,7-5,4 (00:00)-4,7 (02:04)0,0 l/m²83%1017,40,0 km/h (0 Bft) O6,4 km/h (2 Bft) O (02:10)
Kreuzthal-Steinberg-Alpe930 m02:10-5,8-7,9 (00:10)-5,7 (02:00)0,0 l/m²100%1018,01,4 km/h (1 Bft) O7,9 km/h (2 Bft) SO (01:50)
Kreuzthal-Steinberggipfel1040 m02:10-5,0-6,8 (00:10)-4,8 (01:20)-84%1018,04,3 km/h (1 Bft) SW9,0 km/h (2 Bft) W-SW (01:30)
Kristberg im Montafon (AT)1425 m02:10-2,5-3,9 (00:00)-1,8 (01:00)0,0 l/m²43%1018,50,0 km/h (0 Bft) N-NO9,7 km/h (2 Bft) NO (00:45)
Laupheim500 m02:10-4,8-6,0 (00:10)-4,8 (02:05)0,0 l/m²84%1017,50,0 km/h (0 Bft) S-SO9,7 km/h (2 Bft) O-SO (00:55)
Leutkirch-Heggelbach670 m02:10-7,3-8,3 (00:00)-7,3 (02:05)0,0 l/m²91%1017,70,0 km/h (0 Bft) W-NW0,0 km/h (0 Bft) N-NO (00:00)
Lindau-Insel420 m02:00-4,0-4,7 (00:00)-4,0 (14:25)0,0 l/m²82%1018,43,2 km/h (1 Bft) N-NO14,5 km/h (3 Bft) NO (11:35)
Lindau-Stadt412 m02:10-4,6-5,2 (23:10)-4,6 (11:15)0,0 l/m²83%1018,61,6 km/h (1 Bft) O-NO11,3 km/h (2 Bft) NO (11:30)
Maierhöfen im Allgäu733 m02:15-7,2-10,7 (00:00)-7,2 (02:15)0,0 l/m²93%1019,23,2 km/h (1 Bft) S-SO3,2 km/h (1 Bft) S-SO (01:01)
Maselheim-Sulmingen548 m02:10-5,7-7,5 (00:00)-5,7 (12:25)0,0 l/m²90%1019,44,8 km/h (1 Bft) S-SO20,9 km/h (4 Bft) O (14:00)
Mietingen-Baltringen528 m02:10-5,3-6,6 (00:05)-5,3 (01:50)0,0 l/m²84%1020,13,2 km/h (1 Bft) S-SO11,3 km/h (2 Bft) O (00:45)
Mindelheim-Apfeltrach620 m02:11-7,3-7,9 (00:20)-7,2 (01:42)0,0 l/m²90%1019,03,2 km/h (1 Bft) SO9,7 km/h (2 Bft) SO (01:07)
Neresheim552 m00:00-5,0-5,0 (00:00)-5,0 (00:00)0,0 l/m²85%1016,65,0 km/h (1 Bft) S-SO5,0 km/h (1 Bft) S-SO (00:00)
Neukirch570 m02:10-5,7-6,1 (23:00)-5,7 (14:55)0,0 l/m²87%1019,00,0 km/h (0 Bft) NO20,9 km/h (4 Bft) O-NO (11:50)
Ochsenhausen, Birkenstraße613 m02:10-5,7-6,2 (23:00)-5,7 (15:20)0,0 l/m²83%1018,64,8 km/h (1 Bft) O-NO19,3 km/h (3 Bft) O-NO (14:15)
Ostrach619 m02:10-5,0-6,1 (22:35)-5,0 (14:10)0,0 l/m²92%1016,91,6 km/h (1 Bft) O-NO17,7 km/h (3 Bft) N-NO (14:45)
Ravensburg428 m02:15-4,1-4,9 (01:00)-4,1 (02:05)0,0 l/m²84%1017,54,8 km/h (1 Bft) O-NO9,7 km/h (2 Bft) NO (00:00)
Reichenbach an der Fils343 m02:10-2,2-3,3 (00:00)-2,2 (01:25)0,0 l/m²78%1019,314,5 km/h (3 Bft) O-SO30,6 km/h (5 Bft) O-SO (00:45)
Reinstetten559 m02:10-5,6-6,4 (00:00)-5,6 (00:40)0,0 l/m²87%1018,63,2 km/h (1 Bft) SO11,3 km/h (2 Bft) O-SO (00:20)
Riedlingen530 m02:10-4,8-5,2 (00:05)-4,8 (00:50)0,0 l/m²88%1018,00,0 km/h (0 Bft) O0,0 km/h (0 Bft) O-NO (00:00)
Rißtissen489 m02:10-4,1-4,8 (00:00)-4,1 (01:10)0,0 l/m²89%1015,63,2 km/h (1 Bft) O-NO9,7 km/h (2 Bft) O (01:15)
Schemmerhofen520 m02:10-5,0-5,2 (00:00)-5,0 (00:25)0,0 l/m²90%1017,60,0 km/h (0 Bft) O-NO6,4 km/h (2 Bft) O-NO (00:20)
Silbertal im Montafon (AT)884 m02:10-4,7-7,2 (00:00)-4,7 (02:10)0,0 l/m²89%1020,30,0 km/h (0 Bft) W1,6 km/h (1 Bft) W (00:00)
Tettnang466 m02:10-4,9-5,4 (00:00)-4,9 (02:05)0,0 l/m²85%1017,23,2 km/h (1 Bft) O-NO4,8 km/h (1 Bft) O-NO (02:00)
Tuttlingen662 m02:10-6,7-7,4 (00:00)-6,7 (02:10)0,0 l/m²87%1018,20,0 km/h (0 Bft) O-NO0,0 km/h (0 Bft) O-NO (00:00)
Ummendorf547 m02:10-5,1-5,5 (00:05)-5,0 (02:10)0,0 l/m²85%1019,31,6 km/h (1 Bft) S-SW14,5 km/h (3 Bft) SO (00:25)
Ummendorf-Fischbach558 m02:10-5,4-6,0 (00:00)-5,4 (01:25)0,0 l/m²86%1019,30,0 km/h (0 Bft) S9,7 km/h (2 Bft) S-SW (00:00)
Waldburg707 m02:10-4,9-6,7 (00:00)-4,9 (02:05)0,0 l/m²87%1018,36,4 km/h (2 Bft) N12,9 km/h (3 Bft) N (00:10)
Waltenhofen im Allgäu720 m02:15-9,7-12,3 (00:10)-9,7 (02:10)0,0 l/m²91%1018,50,0 km/h (0 Bft) S-SO4,8 km/h (1 Bft) S-SO (01:45)
Weingarten500 m02:10-5,1-6,0 (00:00)-5,1 (02:05)0,0 l/m²88%1018,21,6 km/h (1 Bft) O-NO6,4 km/h (2 Bft) O (02:05)
Winterlingen785 m00:00-7,0-7,0 (00:00)-7,0 (00:00)0,0 l/m²93%1016,82,5 km/h (1 Bft) O-SO2,5 km/h (1 Bft) O-SO (00:00)

Werbung
niederschlagsdatenbank | info | login - erfassung

Sollten Sie Interesse haben, an der Niederschlagsdatenbank teilzunehmen, finden Sie > hier < weitere Informationen.

Niederschlagsdaten der Station Erlenmoos - Haldenweg 15

Georg Gierl

Niederschlagsstation aufgenommen ins Stationsnetz der Wetterwarte Süd am 04.09.2009
Monat: .
Anmerkung:0,0 = nicht messbarer Niederschlag
 -  = kein Niederschlag

Stationsdaten

Höhe

630 m

Lage

Auf Google Maps ansehen

Beschreibung

Die Wetterstation liegt in einem locker bebauten Wohngebiet am Nord-Westlichen Ortsrand von Erlenmoos auf 48,07 Grad nördlicher Breite und 9,98 Grad östlicher Länge ! Nach Westen zu in etwa 800 Meter Entfernung befindet sich das Rottumtal mit der Stadt Ochsenhausen !

Weitere Informationen finden Sie unter meiner Webseite http://www.Blitzchaser.de
< November 2018

Dezember 2018

TagNiederschlagBemerkung
01.1,2
Regen
02.5,1
Regen
03.7,9
Regen
04.5,9
Regen
05.3,8
Regen
06.0,1
Regen
07.1,8
Regen
08.13,1
Regen
09.5,6
Regen Schnee
10.4,9
Regen Schnee
11.1,6
Schnee
Schneehöhe: 2 cm
12.0,1
Schnee
Schneehöhe: 3 cm
13.0,0
Schnee
Schneehöhe: 2 cm
14.-
Schneehöhe: 2 cm
15.-
16.-
17.-
18.-
19.-
20.-
21.-
22.-
23.-
24.-
25.-
26.-
27.-
28.-
29.-
30.-
31.-
Gesamt:51,1 
Die Spalten "Tag" und "Niederschlag" lassen sich durch Klicken auf den Spaltenkopf sortieren.
Die Angaben sind in l/m².

< November 2018


Monats- und Jahresniederschlag


Wetterbeobachtungen Legende:

  • Regen
  • Nieselregen
  • Schneeregen
  • Schnee
  • Graupel
  • Eiskörner
  • Hagel
  • Bodennebel
  • Gewitter
  • Nebelnässe
  • Schneegriesel

Grafische Darstellung der Niederschläge der Station Erlenmoos Dezember 2018

 
wetterstationen
wetterstationen
- derzeit 73 Stationen
niederschlagsdatenbank
wetterstationen
- kartographische Darstellung
niederschlagsdatenbank
niederschlagsstationen
- derzeit 102 Stationen
niederschlagsdatenbank
niederschlagsstationen
- kartographische Darstellung
 
  treffpunkt & service
--- Anzeigen --------------------------------
zugriffe:
insgesamt: 40.146.763
aktueller monat: 220.775
heute: 334
momentan online: 6
 
 
monatshöchstwert: 653.625
vorheriger monat: 361.432
gestern: 15.885
tageshöchstwert: 45.129
 
wetterwarte süd
 
konradstraße 3
info@wetterwarte-sued.com
roland roth
 
88427 bad schussenried